5BLKA RJKN-RJFR

Flight info

Callsign 5BLKA
Flight time 1h 37m
Altitude 31000
Route ANOXA A582 BOMAP Y25 KOSHI Y501 SASIK G339 OSTEP Y14 DGC V28 ONGHA
Aircraft SF50/L-SBDGRWY/LB2U2

Departure

Time 2026-04-15 08:58
Airport Tokunoshima Airport (RJKN)

Arrival

Time 2026-04-15 10:35
Airport Kitakyushu Airport (RJFR)
Time Latitude Longitude Altitude Speed Heading
2026-04-15 08:44 27.83152 128.88234 10 ft 0 kts 92°
2026-04-15 08:55 27.83147 128.88244 7 ft 3 kts 191°
2026-04-15 08:55 27.83146 128.88213 10 ft 5 kts 280°
2026-04-15 08:55 27.83121 128.88191 10 ft 5 kts 222°
2026-04-15 08:56 27.83110 128.88163 11 ft 0 kts 269°
2026-04-15 08:57 27.83109 128.88133 10 ft 12 kts 268°
2026-04-15 08:57 27.83156 128.88080 9 ft 8 kts
2026-04-15 08:57 27.83256 128.88088 8 ft 44 kts
2026-04-15 08:57 27.83784 128.88117 39 ft 103 kts
2026-04-15 08:58 27.84566 128.88274 368 ft 122 kts
2026-04-15 08:58 27.86346 128.88465 1160 ft 141 kts 343°
2026-04-15 08:58 27.87255 128.88100 1782 ft 137 kts 337°
2026-04-15 08:59 27.88184 128.87677 2276 ft 149 kts 337°
2026-04-15 08:59 27.89137 128.87290 2931 ft 146 kts 342°
2026-04-15 08:59 27.90140 128.86979 3360 ft 157 kts 334°
2026-04-15 08:59 27.91147 128.86492 3894 ft 157 kts 334°
2026-04-15 09:00 27.92192 128.86077 4418 ft 161 kts 336°
2026-04-15 09:00 27.93257 128.85664 4994 ft 162 kts 336°
2026-04-15 09:00 27.94333 128.85244 5532 ft 165 kts 335°
2026-04-15 09:00 27.95429 128.84824 6045 ft 167 kts 335°
2026-04-15 09:01 27.96539 128.84398 6526 ft 169 kts 335°
2026-04-15 09:01 27.97659 128.83971 6990 ft 170 kts 334°
2026-04-15 09:01 27.98787 128.83537 7451 ft 172 kts 334°
2026-04-15 09:01 27.99925 128.83102 7910 ft 173 kts 333°
2026-04-15 09:02 28.01071 128.82663 8371 ft 174 kts 333°
2026-04-15 09:02 28.02251 128.82304 8823 ft 181 kts 344°
2026-04-15 09:02 28.03542 128.82352 9273 ft 191 kts
2026-04-15 09:02 28.04863 128.82638 9718 ft 194 kts
2026-04-15 09:03 28.06189 128.82899 10133 ft 194 kts
2026-04-15 09:03 28.07523 128.83166 10540 ft 195 kts
2026-04-15 09:03 28.08864 128.83434 10941 ft 196 kts
2026-04-15 09:03 28.10213 128.83708 11339 ft 197 kts
2026-04-15 09:04 28.11568 128.83979 11724 ft 198 kts
2026-04-15 09:04 28.12930 128.84254 12114 ft 199 kts
2026-04-15 09:04 28.14300 128.84530 12510 ft 200 kts 360°
2026-04-15 09:04 28.15677 128.84809 12893 ft 202 kts 360°
2026-04-15 09:05 28.17061 128.85088 13272 ft 202 kts 359°
2026-04-15 09:05 28.18452 128.85370 13641 ft 204 kts 360°
2026-04-15 09:05 28.19852 128.85654 13966 ft 205 kts 359°
2026-04-15 09:05 28.21262 128.85938 14277 ft 207 kts 360°
2026-04-15 09:06 28.22682 128.86227 14589 ft 208 kts 359°
2026-04-15 09:06 28.24114 128.86515 14896 ft 210 kts 359°
2026-04-15 09:06 28.25557 128.86807 15202 ft 212 kts 359°
2026-04-15 09:06 28.27011 128.87101 15508 ft 213 kts 359°
2026-04-15 09:07 28.28474 128.87396 15813 ft 215 kts 359°
2026-04-15 09:07 28.29948 128.87695 16113 ft 216 kts 359°
2026-04-15 09:07 28.31433 128.87994 16407 ft 218 kts 359°
2026-04-15 09:07 28.32929 128.88299 16700 ft 219 kts 359°
2026-04-15 09:08 28.34435 128.88604 16985 ft 221 kts 359°
2026-04-15 09:08 28.35952 128.88911 17283 ft 222 kts 359°
2026-04-15 09:08 28.37478 128.89222 17566 ft 223 kts 359°
2026-04-15 09:08 28.39014 128.89533 17847 ft 225 kts 359°
2026-04-15 09:09 28.40559 128.89848 18129 ft 226 kts 359°
2026-04-15 09:09 28.42113 128.90162 18376 ft 227 kts 359°
2026-04-15 09:09 28.43674 128.90479 18619 ft 228 kts 359°
2026-04-15 09:09 28.45238 128.90797 18859 ft 229 kts 359°
2026-04-15 09:10 28.46811 128.91115 19091 ft 230 kts 359°
2026-04-15 09:10 28.48389 128.91436 19324 ft 231 kts 359°
2026-04-15 09:10 28.49974 128.91757 19555 ft 232 kts 359°
2026-04-15 09:10 28.51564 128.92081 19784 ft 233 kts 359°
2026-04-15 09:11 28.53160 128.92407 20020 ft 233 kts 359°
2026-04-15 09:11 28.54762 128.92732 20238 ft 234 kts 359°
2026-04-15 09:11 28.56370 128.93060 20461 ft 235 kts 359°
2026-04-15 09:11 28.57983 128.93390 20699 ft 236 kts 359°
2026-04-15 09:12 28.59599 128.93720 20939 ft 236 kts 359°
2026-04-15 09:12 28.61212 128.94049 21184 ft 235 kts 358°
2026-04-15 09:12 28.62823 128.94376 21426 ft 235 kts 358°
2026-04-15 09:12 28.64432 128.94702 21672 ft 235 kts 358°
2026-04-15 09:13 28.66038 128.95030 21919 ft 234 kts 358°
2026-04-15 09:13 28.67638 128.95480 22149 ft 243 kts 10°
2026-04-15 09:13 28.69163 128.96400 22400 ft 254 kts 25°
2026-04-15 09:13 28.70494 128.97770 22650 ft 264 kts 41°
2026-04-15 09:14 28.71648 128.99408 22894 ft 265 kts 43°
2026-04-15 09:14 28.72813 129.01031 23143 ft 264 kts 43°
2026-04-15 09:14 28.73962 129.02631 23389 ft 264 kts 43°
2026-04-15 09:14 28.75120 129.04258 23609 ft 264 kts 43°
2026-04-15 09:15 28.76279 129.05885 23824 ft 264 kts 42°
2026-04-15 09:15 28.77439 129.07514 24020 ft 265 kts 42°
2026-04-15 09:15 28.78601 129.09145 24217 ft 265 kts 42°
2026-04-15 09:15 28.79765 129.10777 24412 ft 266 kts 42°
2026-04-15 09:16 28.80930 129.12415 24597 ft 266 kts 41°
2026-04-15 09:16 28.82098 129.14053 24790 ft 266 kts 41°
2026-04-15 09:16 28.83267 129.15695 24992 ft 267 kts 41°
2026-04-15 09:16 28.84433 129.17336 25182 ft 267 kts 41°
2026-04-15 09:17 28.85605 129.18981 25376 ft 267 kts 41°
2026-04-15 09:17 28.86776 129.20631 25568 ft 268 kts 41°
2026-04-15 09:17 28.87950 129.22282 25760 ft 268 kts 41°
2026-04-15 09:17 28.89126 129.23936 25953 ft 269 kts 41°
2026-04-15 09:18 28.90300 129.25596 26146 ft 269 kts 40°
2026-04-15 09:18 28.91477 129.27254 26359 ft 269 kts 40°
2026-04-15 09:18 28.92653 129.28914 26553 ft 269 kts 40°
2026-04-15 09:18 28.93830 129.30575 26751 ft 269 kts 39°
2026-04-15 09:19 28.95010 129.32238 26935 ft 270 kts 39°
2026-04-15 09:19 28.96189 129.33906 27125 ft 270 kts 39°
2026-04-15 09:19 28.97372 129.35576 27311 ft 270 kts 39°
2026-04-15 09:19 28.98186 129.36630 27430 ft 263 kts 30°
2026-04-15 09:20 28.99607 129.37837 27633 ft 248 kts 15°
2026-04-15 09:20 29.01127 129.38619 27840 ft 233 kts
2026-04-15 09:20 29.02663 129.39220 28047 ft 234 kts
2026-04-15 09:20 29.04197 129.39857 28254 ft 234 kts
2026-04-15 09:21 29.05730 129.40482 28462 ft 234 kts
2026-04-15 09:21 29.07262 129.41102 28674 ft 234 kts
2026-04-15 09:21 29.08793 129.41723 28917 ft 233 kts
2026-04-15 09:21 29.10318 129.42344 29155 ft 232 kts
2026-04-15 09:22 29.11841 129.42960 29368 ft 232 kts
2026-04-15 09:22 29.13362 129.43579 29586 ft 232 kts
2026-04-15 09:22 29.14882 129.44199 29805 ft 232 kts 360°
2026-04-15 09:22 29.16400 129.44816 30017 ft 232 kts 360°
2026-04-15 09:23 29.17918 129.45435 30201 ft 232 kts 360°
2026-04-15 09:23 29.19436 129.46052 30379 ft 232 kts 359°
2026-04-15 09:23 29.20952 129.46671 30561 ft 232 kts 359°
2026-04-15 09:23 29.22470 129.47290 30738 ft 232 kts 359°
2026-04-15 09:24 29.23991 129.47908 30890 ft 233 kts 359°
2026-04-15 09:24 29.25554 129.48535 30898 ft 242 kts 360°
2026-04-15 09:24 29.27171 129.49193 30900 ft 251 kts
2026-04-15 09:24 29.28837 129.49875 30906 ft 258 kts
2026-04-15 09:25 29.30524 129.50565 30902 ft 264 kts
2026-04-15 09:25 29.32267 129.51279 30905 ft 268 kts
2026-04-15 09:25 29.34040 129.52007 30903 ft 274 kts
2026-04-15 09:25 29.35835 129.52825 30902 ft 280 kts
2026-04-15 09:26 29.37655 129.53660 30903 ft 284 kts
2026-04-15 09:26 29.39499 129.54502 30904 ft 287 kts
2026-04-15 09:26 29.41367 129.55352 30905 ft 291 kts
2026-04-15 09:26 29.43255 129.56215 30905 ft 295 kts
2026-04-15 09:27 29.45175 129.57092 30905 ft 299 kts
2026-04-15 09:27 29.47121 129.57981 30890 ft 303 kts
2026-04-15 09:27 29.51080 129.59792 30907 ft 309 kts
2026-04-15 09:28 29.55104 129.61635 30904 ft 313 kts
2026-04-15 09:28 29.59176 129.63499 30903 ft 316 kts
2026-04-15 09:29 29.63283 129.65381 30905 ft 319 kts
2026-04-15 09:29 29.67418 129.67276 30899 ft 321 kts
2026-04-15 09:30 29.71570 129.69181 30902 ft 322 kts
2026-04-15 09:30 29.75743 129.71098 30903 ft 323 kts
2026-04-15 09:31 29.79927 129.73025 30902 ft 324 kts
2026-04-15 09:31 29.84112 129.74951 30902 ft 324 kts
2026-04-15 09:32 29.88294 129.76878 30899 ft 323 kts
2026-04-15 09:32 29.92414 129.78779 30896 ft 319 kts
2026-04-15 09:33 29.96546 129.80680 30890 ft 321 kts
2026-04-15 09:33 30.00702 129.82375 30887 ft 307 kts 356°
2026-04-15 09:34 30.02774 129.82713 30890 ft 296 kts 349°
2026-04-15 09:34 30.04835 129.82916 30892 ft 297 kts 349°
2026-04-15 09:34 30.06894 129.83145 30902 ft 298 kts 349°
2026-04-15 09:34 30.08946 129.83376 30901 ft 295 kts 349°
2026-04-15 09:35 30.10983 129.83594 30898 ft 293 kts 349°
2026-04-15 09:35 30.13012 129.83810 30896 ft 293 kts 349°
2026-04-15 09:35 30.15047 129.84027 30896 ft 294 kts 349°
2026-04-15 09:35 30.17086 129.84249 30897 ft 295 kts 349°
2026-04-15 09:36 30.19131 129.84471 30902 ft 295 kts 349°
2026-04-15 09:36 30.21178 129.84692 30902 ft 296 kts 349°
2026-04-15 09:36 30.23230 129.84915 30903 ft 296 kts 349°
2026-04-15 09:36 30.25286 129.85137 30898 ft 297 kts 349°
2026-04-15 09:37 30.27344 129.85361 30901 ft 297 kts 349°
2026-04-15 09:37 30.29386 129.85586 30901 ft 293 kts 349°
2026-04-15 09:37 30.31407 129.85804 30898 ft 291 kts 348°
2026-04-15 09:37 30.33423 129.86015 30897 ft 292 kts 348°
2026-04-15 09:38 30.35454 129.86235 30895 ft 293 kts 349°
2026-04-15 09:38 30.37480 129.86457 30895 ft 293 kts 349°
2026-04-15 09:38 30.39514 129.86677 30896 ft 294 kts 349°
2026-04-15 09:38 30.41551 129.86898 30896 ft 294 kts 349°
2026-04-15 09:39 30.43590 129.87119 30903 ft 294 kts 349°
2026-04-15 09:39 30.45632 129.87342 30903 ft 295 kts 349°
2026-04-15 09:39 30.47675 129.87566 30923 ft 295 kts 349°
2026-04-15 09:39 30.49699 129.87792 30902 ft 289 kts 349°
2026-04-15 09:40 30.51695 129.88008 30897 ft 287 kts 348°
2026-04-15 09:40 30.53662 129.88216 30896 ft 288 kts 348°
2026-04-15 09:40 30.55661 129.88435 30890 ft 289 kts 349°
2026-04-15 09:40 30.57662 129.88655 30897 ft 289 kts 348°
2026-04-15 09:41 30.59664 129.88872 30895 ft 289 kts 348°
2026-04-15 09:41 30.61669 129.89092 30895 ft 289 kts 348°
2026-04-15 09:41 30.63671 129.89309 30895 ft 290 kts 348°
2026-04-15 09:41 30.65678 129.89527 30889 ft 290 kts 349°
2026-04-15 09:42 30.67688 129.89748 30896 ft 290 kts 349°
2026-04-15 09:42 30.69697 129.89967 30899 ft 289 kts 349°
2026-04-15 09:42 30.71687 129.90188 30898 ft 286 kts 349°
2026-04-15 09:42 30.73661 129.90402 30895 ft 285 kts 348°
2026-04-15 09:43 30.75639 129.90613 30897 ft 286 kts 349°
2026-04-15 09:43 30.77623 129.90831 30895 ft 287 kts 349°
2026-04-15 09:43 30.79612 129.91050 30896 ft 287 kts 349°
2026-04-15 09:43 30.81606 129.91270 30896 ft 288 kts 349°
2026-04-15 09:44 30.83607 129.91497 30897 ft 290 kts 349°
2026-04-15 09:44 30.85611 129.91726 30896 ft 288 kts 348°
2026-04-15 09:44 30.87603 129.91928 30897 ft 287 kts 348°
2026-04-15 09:44 30.89590 129.92142 30908 ft 287 kts 349°
2026-04-15 09:45 30.91568 129.92365 30898 ft 284 kts 349°
2026-04-15 09:45 30.93524 129.92584 30893 ft 282 kts 349°
2026-04-15 09:45 30.95481 129.92792 30892 ft 283 kts 349°
2026-04-15 09:45 30.97444 129.93006 30892 ft 284 kts 349°
2026-04-15 09:46 30.99411 129.93224 30893 ft 284 kts 349°
2026-04-15 09:46 31.01381 129.93440 30894 ft 285 kts 349°
2026-04-15 09:46 31.03354 129.93657 30894 ft 285 kts 349°
2026-04-15 09:46 31.05329 129.93874 30894 ft 285 kts 349°
2026-04-15 09:47 31.07306 129.94091 30891 ft 286 kts 349°
2026-04-15 09:47 31.09285 129.94311 30892 ft 286 kts 349°
2026-04-15 09:47 31.11266 129.94528 30898 ft 285 kts 349°
2026-04-15 09:47 31.13234 129.94749 30895 ft 283 kts 349°
2026-04-15 09:48 31.15187 129.94965 30888 ft 281 kts 349°
2026-04-15 09:48 31.17133 129.95177 30888 ft 281 kts 349°
2026-04-15 09:48 31.19086 129.95392 30889 ft 282 kts 349°
2026-04-15 09:48 31.21044 129.95609 30890 ft 283 kts 349°
2026-04-15 09:49 31.23005 129.95826 30891 ft 283 kts 349°
2026-04-15 09:49 31.24966 129.96043 30892 ft 284 kts 349°
2026-04-15 09:49 31.26935 129.96267 30886 ft 286 kts 350°
2026-04-15 09:49 31.28933 129.96736 30884 ft 300 kts 359°
2026-04-15 09:50 31.30937 129.97591 30892 ft 315 kts
2026-04-15 09:50 31.32917 129.98696 30892 ft 314 kts
2026-04-15 09:50 31.36853 130.00820 30890 ft 310 kts
2026-04-15 09:51 31.40774 130.02956 30888 ft 312 kts
2026-04-15 09:51 31.44711 130.05102 30877 ft 313 kts
2026-04-15 09:52 31.48655 130.07257 30891 ft 314 kts
2026-04-15 09:52 31.52627 130.09426 30888 ft 315 kts
2026-04-15 09:53 31.56569 130.11583 30885 ft 314 kts
2026-04-15 09:53 31.60525 130.13747 30881 ft 313 kts
2026-04-15 09:54 31.64467 130.15904 30883 ft 312 kts
2026-04-15 09:54 31.68396 130.18059 30883 ft 311 kts
2026-04-15 09:55 31.72316 130.20209 30882 ft 311 kts
2026-04-15 09:55 31.76236 130.22359 30881 ft 312 kts
2026-04-15 09:56 31.80175 130.24507 30882 ft 311 kts
2026-04-15 09:57 31.86086 130.27785 30882 ft 315 kts
2026-04-15 09:57 31.90053 130.29972 30882 ft 315 kts
2026-04-15 09:58 31.94021 130.32162 30885 ft 315 kts
2026-04-15 09:58 31.97961 130.34339 30886 ft 314 kts
2026-04-15 09:59 32.01924 130.36527 30878 ft 314 kts 10°
2026-04-15 09:59 32.05864 130.38714 30881 ft 314 kts
2026-04-15 10:00 32.09829 130.40892 30884 ft 315 kts
2026-04-15 10:00 32.13810 130.43100 30887 ft 316 kts
2026-04-15 10:01 32.17794 130.45328 30903 ft 318 kts
2026-04-15 10:01 32.21798 130.47561 30880 ft 317 kts
2026-04-15 10:02 32.25773 130.49735 30877 ft 315 kts 10°
2026-04-15 10:02 32.29770 130.51549 30872 ft 297 kts 356°
2026-04-15 10:02 32.31772 130.51882 30881 ft 285 kts 348°
2026-04-15 10:03 32.33711 130.51876 30879 ft 273 kts 340°
2026-04-15 10:03 32.35602 130.51726 30900 ft 272 kts 341°
2026-04-15 10:03 32.37477 130.51560 30884 ft 272 kts 340°
2026-04-15 10:03 32.39380 130.51469 30893 ft 275 kts 342°
2026-04-15 10:04 32.41273 130.51327 30894 ft 272 kts 340°
2026-04-15 10:04 32.43162 130.51156 30895 ft 272 kts 340°
2026-04-15 10:04 32.45052 130.50972 30895 ft 273 kts 340°
2026-04-15 10:04 32.46948 130.50794 30895 ft 274 kts 340°
2026-04-15 10:05 32.48849 130.50617 30897 ft 274 kts 340°
2026-04-15 10:05 32.50750 130.50438 30897 ft 274 kts 340°
2026-04-15 10:05 32.52652 130.50260 30897 ft 274 kts 340°
2026-04-15 10:05 32.54553 130.50082 30897 ft 274 kts 340°
2026-04-15 10:06 32.56428 130.49904 30895 ft 274 kts 340°
2026-04-15 10:06 32.58329 130.49725 30893 ft 273 kts 340°
2026-04-15 10:06 32.60214 130.49550 30892 ft 271 kts 340°
2026-04-15 10:06 32.62088 130.49373 30891 ft 270 kts 340°
2026-04-15 10:07 32.63954 130.49195 30890 ft 270 kts 340°
2026-04-15 10:07 32.65846 130.49017 30697 ft 276 kts 340°
2026-04-15 10:07 32.67762 130.48832 30393 ft 276 kts 341°
2026-04-15 10:07 32.69667 130.48661 30081 ft 273 kts 342°
2026-04-15 10:08 32.71556 130.48486 29744 ft 271 kts 342°
2026-04-15 10:08 32.73427 130.48310 29425 ft 270 kts 342°
2026-04-15 10:08 32.75304 130.48130 29109 ft 272 kts 342°
2026-04-15 10:08 32.77199 130.47952 28792 ft 274 kts 342°
2026-04-15 10:09 32.79108 130.47776 28477 ft 276 kts 342°
2026-04-15 10:09 32.81021 130.47601 28132 ft 275 kts 342°
2026-04-15 10:09 32.82278 130.47484 27932 ft 274 kts 342°
2026-04-15 10:09 32.84173 130.47305 27611 ft 273 kts 343°
2026-04-15 10:10 32.86075 130.47124 27291 ft 275 kts 343°
2026-04-15 10:10 32.87990 130.46936 26968 ft 277 kts 342°
2026-04-15 10:10 32.89911 130.46726 26644 ft 278 kts 343°
2026-04-15 10:10 32.91843 130.46520 26325 ft 280 kts 343°
2026-04-15 10:11 32.93785 130.46317 25993 ft 281 kts 343°
2026-04-15 10:11 32.95737 130.46114 25666 ft 282 kts 343°
2026-04-15 10:11 32.97697 130.45906 25337 ft 283 kts 343°
2026-04-15 10:11 32.99664 130.45698 25023 ft 284 kts 344°
2026-04-15 10:12 33.01643 130.45489 24683 ft 286 kts 344°
2026-04-15 10:12 33.03632 130.45278 24348 ft 288 kts 345°
2026-04-15 10:12 33.05631 130.45068 24014 ft 289 kts 345°
2026-04-15 10:12 33.07635 130.44861 23679 ft 291 kts 345°
2026-04-15 10:13 33.09659 130.44670 23317 ft 292 kts 346°
2026-04-15 10:13 33.11688 130.44475 22958 ft 293 kts 346°
2026-04-15 10:13 33.13722 130.44274 22614 ft 294 kts 346°
2026-04-15 10:13 33.15766 130.44074 22270 ft 295 kts 347°
2026-04-15 10:14 33.17818 130.43873 21928 ft 296 kts 347°
2026-04-15 10:14 33.19876 130.43673 21582 ft 297 kts 347°
2026-04-15 10:14 33.21940 130.43470 21242 ft 298 kts 347°
2026-04-15 10:14 33.24008 130.43267 20888 ft 298 kts 348°
2026-04-15 10:15 33.26076 130.43066 20548 ft 298 kts 348°
2026-04-15 10:15 33.28143 130.42862 20205 ft 298 kts 348°
2026-04-15 10:15 33.30216 130.42655 19858 ft 301 kts 348°
2026-04-15 10:15 33.32309 130.42452 19507 ft 303 kts 349°
2026-04-15 10:16 33.34412 130.42244 19155 ft 304 kts 349°
2026-04-15 10:16 33.36524 130.42035 18802 ft 305 kts 349°
2026-04-15 10:16 33.38643 130.41828 18449 ft 306 kts 350°
2026-04-15 10:16 33.40767 130.41621 18077 ft 306 kts 350°
2026-04-15 10:17 33.42887 130.41411 17711 ft 306 kts 350°
2026-04-15 10:17 33.45009 130.41202 17354 ft 306 kts 350°
2026-04-15 10:17 33.47131 130.40992 16992 ft 306 kts 350°
2026-04-15 10:17 33.49257 130.40781 16635 ft 306 kts 351°
2026-04-15 10:18 33.51362 130.40575 16277 ft 303 kts 351°
2026-04-15 10:18 33.53461 130.40369 15936 ft 301 kts 351°
2026-04-15 10:18 33.55542 130.40162 15590 ft 300 kts 351°
2026-04-15 10:18 33.57625 130.39955 15238 ft 300 kts 351°
2026-04-15 10:19 33.59696 130.39752 14897 ft 297 kts 351°
2026-04-15 10:19 33.61768 130.39815 14546 ft 300 kts
2026-04-15 10:19 33.63810 130.40391 14196 ft 304 kts 14°
2026-04-15 10:19 33.65712 130.41448 13846 ft 307 kts 26°
2026-04-15 10:20 33.67432 130.42983 13462 ft 309 kts 38°
2026-04-15 10:20 33.68856 130.44913 13093 ft 310 kts 50°
2026-04-15 10:20 33.69921 130.47160 12730 ft 310 kts 62°
2026-04-15 10:20 33.70640 130.49598 12371 ft 309 kts 68°
2026-04-15 10:21 33.71329 130.52038 12013 ft 306 kts 67°
2026-04-15 10:21 33.72021 130.54423 11651 ft 294 kts 67°
2026-04-15 10:21 33.72645 130.56650 11318 ft 269 kts 68°
2026-04-15 10:21 33.73220 130.58705 11068 ft 254 kts 66°
2026-04-15 10:22 33.73795 130.60708 10800 ft 253 kts 66°
2026-04-15 10:22 33.74362 130.62699 10512 ft 250 kts 66°
2026-04-15 10:22 33.74912 130.64652 10217 ft 245 kts 66°
2026-04-15 10:22 33.75455 130.66574 9919 ft 241 kts 66°
2026-04-15 10:23 33.75993 130.68473 9614 ft 239 kts 66°
2026-04-15 10:23 33.76524 130.70359 9325 ft 237 kts 66°
2026-04-15 10:23 33.77050 130.72231 9046 ft 236 kts 66°
2026-04-15 10:23 33.77578 130.74098 8770 ft 236 kts 66°
2026-04-15 10:24 33.78100 130.75956 8489 ft 234 kts 66°
2026-04-15 10:24 33.78616 130.77783 8222 ft 226 kts 66°
2026-04-15 10:24 33.79134 130.79626 7949 ft 234 kts 66°
2026-04-15 10:24 33.79555 130.81123 7731 ft 232 kts 66°
2026-04-15 10:25 33.80067 130.82962 7455 ft 231 kts 66°
2026-04-15 10:25 33.80575 130.84780 7184 ft 229 kts 66°
2026-04-15 10:25 33.81082 130.86581 6919 ft 226 kts 66°
2026-04-15 10:25 33.81584 130.88374 6653 ft 225 kts 66°
2026-04-15 10:26 33.82083 130.90155 6385 ft 224 kts 66°
2026-04-15 10:26 33.82584 130.91928 6114 ft 224 kts 66°
2026-04-15 10:26 33.83083 130.93711 5845 ft 225 kts 66°
2026-04-15 10:26 33.83582 130.95498 5579 ft 225 kts 67°
2026-04-15 10:27 33.84077 130.97270 5312 ft 222 kts 66°
2026-04-15 10:27 33.84568 130.99022 5052 ft 221 kts 67°
2026-04-15 10:27 33.85055 131.00774 4799 ft 221 kts 67°
2026-04-15 10:27 33.85542 131.02524 4531 ft 220 kts 67°
2026-04-15 10:28 33.86060 131.04233 4272 ft 214 kts 58°
2026-04-15 10:28 33.86962 131.05587 4024 ft 204 kts 43°
2026-04-15 10:28 33.87947 131.06789 3798 ft 199 kts 42°
2026-04-15 10:28 33.88753 131.08116 3635 ft 202 kts 65°
2026-04-15 10:29 33.89060 131.09763 3517 ft 197 kts 78°
2026-04-15 10:29 33.89053 131.11357 3355 ft 184 kts 91°
2026-04-15 10:29 33.88767 131.12778 3169 ft 173 kts 105°
2026-04-15 10:29 33.88196 131.14027 2969 ft 169 kts 122°
2026-04-15 10:30 33.87375 131.15024 2761 ft 167 kts 136°
2026-04-15 10:30 33.86392 131.15744 2558 ft 166 kts 154°
2026-04-15 10:30 33.85275 131.16066 2329 ft 172 kts 177°
2026-04-15 10:30 33.84036 131.15797 2216 ft 177 kts 200°
2026-04-15 10:31 33.82935 131.15128 2122 ft 177 kts 218°
2026-04-15 10:31 33.81994 131.14262 2166 ft 169 kts 222°
2026-04-15 10:31 33.80967 131.13488 1981 ft 177 kts 214°
2026-04-15 10:31 33.80053 131.12564 1866 ft 162 kts 229°
2026-04-15 10:32 33.79283 131.11654 1735 ft 150 kts 232°
2026-04-15 10:32 33.78803 131.10571 1606 ft 147 kts 256°
2026-04-15 10:32 33.78432 131.09415 1505 ft 146 kts 259°
2026-04-15 10:32 33.78419 131.08262 1502 ft 134 kts 287°
2026-04-15 10:33 33.78750 131.07256 1491 ft 127 kts 309°
2026-04-15 10:33 33.79296 131.06443 1477 ft 125 kts 315°
2026-04-15 10:33 33.79835 131.05682 1290 ft 111 kts 315°
2026-04-15 10:33 33.80336 131.05006 1025 ft 108 kts 317°
2026-04-15 10:34 33.80909 131.04472 764 ft 101 kts 331°
2026-04-15 10:34 33.81572 131.04198 537 ft 99 kts 343°
2026-04-15 10:34 33.82235 131.04019 351 ft 96 kts 346°
2026-04-15 10:34 33.82884 131.03860 184 ft 92 kts 347°
2026-04-15 10:35 33.83494 131.03728 51 ft 89 kts 349°
2026-04-15 10:35 33.84015 131.03615 32 ft 64 kts 350°
2026-04-15 10:35 33.84286 131.03564 32 ft 16 kts 345°
2026-04-15 10:35 33.84336 131.03500 33 ft 9 kts 275°
2026-04-15 10:36 33.84331 131.03452 34 ft 3 kts 261°
2026-04-15 10:36 33.84330 131.03448 34 ft 0 kts 261°
2026-04-15 10:36 33.84326 131.03421 35 ft 10 kts 261°
2026-04-15 10:36 33.84278 131.03365 35 ft 11 kts 183°
2026-04-15 10:37 33.84191 131.03381 35 ft 14 kts 170°
2026-04-15 10:37 33.84087 131.03402 35 ft 16 kts 170°
2026-04-15 10:37 33.83966 131.03426 35 ft 19 kts 170°
2026-04-15 10:37 33.83829 131.03454 35 ft 21 kts 171°
2026-04-15 10:38 33.83684 131.03483 36 ft 21 kts 171°
2026-04-15 10:38 33.83620 131.03496 36 ft 0 kts 171°
2026-04-15 10:38 33.83618 131.03495 36 ft 2 kts 245°
2026-04-15 10:38 33.83650 131.03484 36 ft 10 kts 357°
2026-04-15 10:39 33.83693 131.03460 36 ft 4 kts 259°
2026-04-15 10:39 33.83686 131.03418 36 ft 6 kts 261°
2026-04-15 10:39 33.83678 131.03369 36 ft 3 kts 219°
2026-04-15 10:39 33.83663 131.03369 36 ft 0 kts 168°